Regional Weather Roundup
Issued by NWS Jackson, KY

Home | Current Version | Previous Version | Graphics & Text | Print | Product List | Glossary On
Versions: 1 2 3 4 5 6 7 8 9 10 11 12 13 14 15 16 17 18 19 20 21 22 23 24 25 26 27 28 29 30 31 32 33 34 35 36 37 38 39 40 41 42 43 44 45 46 47 48 49 50
000
ASUS43 KJKL 260811
RWRJKL

EAST KENTUCKY HOURLY WEATHER ROUNDUP
NATIONAL WEATHER SERVICE JACKSON KY
300 AM EST WED NOV 26 2014

NOTE: "FAIR" INDICATES FEW OR NO CLOUDS BELOW 12,000 FEET WITH
NO SIGNIFICANT WEATHER AND/OR OBSTRUCTIONS TO VISIBILITY.

* THESE REPORTS ARE NOT UNDER NWS QUALITY CONTROL AND MAY NOT
  REPORT WEATHER SUCH AS PRECIPITATION AND FOG.

KYZ079-080-083-085-087-088-110-112-115-119-120-260900
...EASTERN KENTUCKY...

CITY           SKY/WX    TMP DP  RH WIND       PRES   REMARKS
JACKSON        CLOUDY    37  28  70 VRB3      30.06S
LONDON         CLOUDY    40  27  59 N3        30.07R
SOMERSET*      CLOUDY    36  28  75 N3        30.10F
MONTICELLO*    CLOUDY    39  29  68 CALM      30.12S
HARLAN APT*    CLOUDY    41  28  60 N3        30.04R
HAZARD APT*    SUNNY     39  30  70 CALM      30.05
BLACK MTN*       N/A     30  27  86 NE2         N/A
PIKEVILLE APT* CLEAR     39  28  65 N7        30.03F WCI  34
MOREHEAD APT*  CLOUDY    36  28  75 CALM      30.12
$$

KYZ035-036-041-042-044-050-067-078-099-260900
...CENTRAL KENTUCKY...

CITY           SKY/WX    TMP DP  RH WIND       PRES   REMARKS
MT STERLING*   CLOUDY    34  30  86 NE5       30.10S WCI  30
FLEMING/MASON* MOCLDY    32  28  86 N6        30.12F WCI  26
DANVILLE*      CLOUDY    32  30  93 NW5       30.11S WCI  27
RICHMOND*      CLOUDY    36  28  75 NE3       30.07F
LEXINGTON      MOCLDY    33  29  85 N9        30.09F WCI  25
FRANKFORT      PTCLDY    30  27  88 N5        30.10F WCI  25
$$

KYZ091>093-OHZ055-061-077-WVZ005-015-034-035-042-260900
...SOUTHERN OHIO/WEST VIRGINIA...

CITY           SKY/WX    TMP DP  RH WIND       PRES   REMARKS
COVINGTON      PTCLDY    28  23  81 N5        30.12F WCI  23
COLUMBUS       CLOUDY    28  23  81 N3        30.16F
DAYTON         CLOUDY    29  25  85 NE7       30.15F WCI  22
WILMINGTON     PTCLDY    26  23  88 NE6       30.14F WCI  19
HUNTINGTON     CLOUDY    36  28  73 N7        30.07F WCI  30
CHARLESTON     CLOUDY    39  29  67 N3        30.05F
PINEVILLE*     CLOUDY    39  36  89 MISG      30.02F
BECKLEY        CLOUDY    39  25  57 NE3       29.99F
BLUEFIELD      CLOUDY    42  24  49 VRB3      29.98F
$$

VAZ002-007-008-TNZ017-027-036-066-071-260900
...SOUTHWEST VIRGINIA/EAST TENNESSEE...

CITY           SKY/WX    TMP DP  RH WIND       PRES   REMARKS
WISE*          CLOUDY    37  28  70 CALM      29.98S
JONESVILLE*    CLOUDY    37  36  93 CALM      30.05R
ABINGDON*      CLOUDY    46  29  52 E6        29.97F
BRISTOL        CLOUDY    42  34  73 SE7       29.98F
KNOXVILLE      CLOUDY    45  30  55 W6        30.00F
OAK RIDGE      CLOUDY    46  30  53 CALM      30.04R
CROSSVILLE     CLOUDY    39  27  62 NE8       30.02F WCI  33
NASHVILLE      CLEAR     33  27  78 CALM      30.12F
$$

...KEY TO REMARKS...
VSB - VISIBILITY IN MILES
WCI - WIND CHILL INDEX
HX  - HEAT INDEX

$$


USA.gov is the U.S. government's official web portal to all federal, state and local government web resources and services.